Time,TemperatureF,DewpointF,PressureIn,WindDirection,WindDirectionDegrees,WindSpeedMPH,WindSpeedGustMPH,Humidity,HourlyPrecipIn,Conditions,Clouds,dailyrainin,SoftwareType,DateUTC
2013-03-03 00:00:00,27.4,23.2,30.08,North,10,0.0,4.0,84,0.00,,,0.00,WeatherCatV1.02B3,2013-03-03 05:00:00,
2013-03-03 00:01:00,27.4,23.5,30.08,North,10,0.0,4.0,85,0.00,,,0.00,WeatherCatV1.02B3,2013-03-03 05:01:00,
2013-03-03 00:02:00,27.4,23.5,30.08,North,349,1.0,1.0,85,0.00,,,0.00,WeatherCatV1.02B3,2013-03-03 05:02:00,
2013-03-03 00:07:00,27.4,23.5,30.08,NNE,15,1.0,2.0,85,0.00,,,0.00,WeatherCatV1.02B3,2013-03-03 05:07:00,
2013-03-03 00:12:00,27.3,23.4,30.08,NNE,14,0.0,0.0,85,0.00,,,0.00,WeatherCatV1.02B3,2013-03-03 05:12:00,
2013-03-03 00:16:00,27.3,23.4,30.08,NNW,341,2.0,2.0,85,0.00,,,0.00,WeatherCatV1.02B3,2013-03-03 05:16:00,
2013-03-03 00:21:00,27.3,23.4,30.08,NW,314,0.0,0.0,85,0.00,,,0.00,WeatherCatV1.02B3,2013-03-03 05:21:00,
2013-03-03 00:26:00,27.3,23.4,30.08,North,355,1.0,3.0,85,0.00,,,0.00,WeatherCatV1.02B3,2013-03-03 05:26:00,
2013-03-03 00:31:00,27.3,23.4,30.08,North,355,1.0,2.0,85,0.00,,,0.00,WeatherCatV1.02B3,2013-03-03 05:31:00,
2013-03-03 00:36:00,27.2,23.3,30.08,North,0,0.0,1.0,85,0.00,,,0.00,WeatherCatV1.02B3,2013-03-03 05:36:00,
2013-03-03 00:41:00,27.2,23.3,30.08,North,349,0.0,2.0,85,0.00,,,0.00,WeatherCatV1.02B3,2013-03-03 05:41:00,
2013-03-03 00:46:00,27.2,23.3,30.08,NNW,332,0.0,3.0,85,0.00,,,0.00,WeatherCatV1.02B3,2013-03-03 05:46:00,
2013-03-03 00:51:00,27.2,23.3,30.08,North,355,0.0,0.0,85,0.00,,,0.00,WeatherCatV1.02B3,2013-03-03 05:51:00,
2013-03-03 00:56:00,27.2,23.3,30.08,NE,50,0.0,3.0,85,0.00,,,0.00,WeatherCatV1.02B3,2013-03-03 05:56:00,
2013-03-03 01:01:00,27.2,23.3,30.08,North,9,0.0,2.0,85,0.00,,,0.00,WeatherCatV1.02B3,2013-03-03 06:01:00,
2013-03-03 01:06:00,27.2,23.3,30.08,NNE,19,2.0,2.0,85,0.00,,,0.00,WeatherCatV1.02B3,2013-03-03 06:06:00,
2013-03-03 01:11:00,27.1,23.2,30.08,North,10,1.0,4.0,85,0.00,,,0.00,WeatherCatV1.02B3,2013-03-03 06:11:00,
2013-03-03 01:16:00,27.0,23.1,30.08,NE,43,0.0,3.0,85,0.00,,,0.00,WeatherCatV1.02B3,2013-03-03 06:16:00,
2013-03-03 01:21:00,27.0,23.1,30.08,North,0,0.0,0.0,85,0.00,,,0.00,WeatherCatV1.02B3,2013-03-03 06:21:00,
2013-03-03 01:26:00,27.0,23.1,30.08,North,355,2.0,3.0,85,0.00,,,0.00,WeatherCatV1.02B3,2013-03-03 06:26:00,
2013-03-03 01:31:00,26.9,23.0,30.08,North,355,0.0,0.0,85,0.00,,,0.00,WeatherCatV1.02B3,2013-03-03 06:31:00,
2013-03-03 01:36:00,26.9,23.0,30.08,NNW,336,0.0,0.0,85,0.00,,,0.00,WeatherCatV1.02B3,2013-03-03 06:36:00,
2013-03-03 01:41:00,26.9,23.3,30.08,NNW,333,0.0,1.0,86,0.00,,,0.00,WeatherCatV1.02B3,2013-03-03 06:41:00,
2013-03-03 01:46:00,26.8,23.2,30.08,NNW,345,0.0,0.0,86,0.00,,,0.00,WeatherCatV1.02B3,2013-03-03 06:46:00,
2013-03-03 01:51:00,26.8,23.2,30.08,NNW,345,0.0,0.0,86,0.00,,,0.00,WeatherCatV1.02B3,2013-03-03 06:51:00,
2013-03-03 01:56:00,26.9,23.3,30.08,NNW,346,0.0,0.0,86,0.00,,,0.00,WeatherCatV1.02B3,2013-03-03 06:56:00,
2013-03-03 02:01:00,27.0,23.4,30.08,NNW,346,0.0,0.0,86,0.00,,,0.00,WeatherCatV1.02B3,2013-03-03 07:01:00,
2013-03-03 02:06:00,27.0,23.4,30.07,NW,304,1.0,2.0,86,0.00,,,0.00,WeatherCatV1.02B3,2013-03-03 07:06:00,
2013-03-03 02:11:00,27.0,23.4,30.07,West,268,0.0,4.0,86,0.00,,,0.00,WeatherCatV1.02B3,2013-03-03 07:11:00,
2013-03-03 02:16:00,27.2,23.6,30.07,NW,305,2.0,2.0,86,0.00,,,0.00,WeatherCatV1.02B3,2013-03-03 07:16:00,
2013-03-03 02:21:00,27.2,23.6,30.07,NNW,348,0.0,1.0,86,0.00,,,0.00,WeatherCatV1.02B3,2013-03-03 07:21:00,
2013-03-03 02:26:00,27.3,23.7,30.07,NNW,331,0.0,0.0,86,0.00,,,0.00,WeatherCatV1.02B3,2013-03-03 07:26:00,
2013-03-03 02:31:00,27.4,23.8,30.07,NNE,12,0.0,0.0,86,0.00,,,0.00,WeatherCatV1.02B3,2013-03-03 07:31:00,
2013-03-03 02:36:00,27.5,23.9,30.06,WNW,299,0.0,2.0,86,0.00,,,0.00,WeatherCatV1.02B3,2013-03-03 07:36:00,
2013-03-03 02:41:00,27.5,23.9,30.06,West,276,0.0,0.0,86,0.00,,,0.00,WeatherCatV1.02B3,2013-03-03 07:41:00,
2013-03-03 02:46:00,27.5,23.9,30.06,West,277,0.0,5.0,86,0.00,,,0.00,WeatherCatV1.02B3,2013-03-03 07:46:00,
2013-03-03 02:51:00,27.5,23.9,30.06,NW,309,2.0,3.0,86,0.00,,,0.00,WeatherCatV1.02B3,2013-03-03 07:51:00,
2013-03-03 02:56:00,27.5,23.9,30.06,West,259,2.0,2.0,86,0.00,,,0.00,WeatherCatV1.02B3,2013-03-03 07:56:00,
2013-03-03 03:01:00,27.5,23.9,30.06,West,270,1.0,3.0,86,0.00,,,0.00,WeatherCatV1.02B3,2013-03-03 08:01:00,
2013-03-03 03:06:00,27.5,23.9,30.05,NW,318,4.0,6.0,86,0.00,,,0.00,WeatherCatV1.02B3,2013-03-03 08:06:00,
2013-03-03 03:11:00,27.5,23.9,30.05,West,265,0.0,0.0,86,0.00,,,0.00,WeatherCatV1.02B3,2013-03-03 08:11:00,
2013-03-03 03:16:00,27.6,23.7,30.05,WNW,289,2.0,3.0,85,0.00,,,0.00,WeatherCatV1.02B3,2013-03-03 08:16:00,
2013-03-03 03:21:00,27.6,24.0,30.05,West,264,5.0,5.0,86,0.00,,,0.00,WeatherCatV1.02B3,2013-03-03 08:21:00,
2013-03-03 03:26:00,27.6,24.0,30.06,West,268,6.0,10.0,86,0.00,,,0.00,WeatherCatV1.02B3,2013-03-03 08:26:00,
2013-03-03 03:31:00,27.2,23.6,30.06,West,263,0.0,13.0,86,0.00,,,0.00,WeatherCatV1.02B3,2013-03-03 08:31:00,
2013-03-03 03:36:00,26.9,23.3,30.06,WSW,246,6.0,11.0,86,0.00,,,0.00,WeatherCatV1.02B3,2013-03-03 08:36:00,
2013-03-03 03:41:00,26.7,23.4,30.06,WNW,292,3.0,4.0,87,0.00,,,0.00,WeatherCatV1.02B3,2013-03-03 08:41:00,
2013-03-03 03:46:00,26.5,23.2,30.06,West,275,5.0,10.0,87,0.00,,,0.00,WeatherCatV1.02B3,2013-03-03 08:46:00,
2013-03-03 03:51:00,26.4,23.3,30.06,WNW,285,3.0,14.0,88,0.00,,,0.00,WeatherCatV1.02B3,2013-03-03 08:51:00,
2013-03-03 03:56:00,26.3,23.2,30.05,WNW,296,1.0,13.0,88,0.00,,,0.00,WeatherCatV1.02B3,2013-03-03 08:56:00,
2013-03-03 04:01:00,26.2,23.1,30.05,West,263,2.0,5.0,88,0.00,,,0.00,WeatherCatV1.02B3,2013-03-03 09:01:00,
2013-03-03 04:06:00,26.2,23.1,30.06,WSW,250,5.0,10.0,88,0.00,,,0.00,WeatherCatV1.02B3,2013-03-03 09:06:00,
2013-03-03 04:11:00,26.2,23.1,30.06,WSW,252,2.0,10.0,88,0.00,,,0.00,WeatherCatV1.02B3,2013-03-03 09:11:00,
2013-03-03 04:16:00,26.1,23.0,30.06,WSW,253,0.0,5.0,88,0.00,,,0.00,WeatherCatV1.02B3,2013-03-03 09:16:00,
2013-03-03 04:21:00,26.1,23.0,30.06,WSW,246,6.0,6.0,88,0.00,,,0.00,WeatherCatV1.02B3,2013-03-03 09:21:00,
2013-03-03 04:26:00,26.2,23.1,30.06,WNW,296,4.0,7.0,88,0.00,,,0.00,WeatherCatV1.02B3,2013-03-03 09:26:00,
2013-03-03 04:31:00,26.2,23.1,30.06,WNW,301,2.0,7.0,88,0.00,,,0.00,WeatherCatV1.02B3,2013-03-03 09:31:00,
2013-03-03 04:36:00,26.2,23.1,30.06,WSW,245,1.0,7.0,88,0.00,,,0.00,WeatherCatV1.02B3,2013-03-03 09:36:00,
2013-03-03 04:41:00,26.3,23.2,30.06,WNW,292,5.0,7.0,88,0.00,,,0.00,WeatherCatV1.02B3,2013-03-03 09:41:00,
2013-03-03 04:46:00,26.3,23.2,30.06,West,261,0.0,4.0,88,0.00,,,0.00,WeatherCatV1.02B3,2013-03-03 09:46:00,
2013-03-03 04:51:00,26.3,23.2,30.06,West,276,4.0,5.0,88,0.00,,,0.00,WeatherCatV1.02B3,2013-03-03 09:51:00,
2013-03-03 04:56:00,26.4,23.3,30.06,WNW,300,5.0,7.0,88,0.00,,,0.00,WeatherCatV1.02B3,2013-03-03 09:56:00,
2013-03-03 05:01:00,26.4,23.3,30.06,West,272,9.0,10.0,88,0.00,,,0.00,WeatherCatV1.02B3,2013-03-03 10:01:00,
2013-03-03 05:06:00,26.5,23.4,30.06,WNW,290,4.0,5.0,88,0.00,,,0.00,WeatherCatV1.02B3,2013-03-03 10:06:00,
2013-03-03 05:11:00,26.5,23.2,30.06,NNW,331,3.0,16.0,87,0.00,,,0.00,WeatherCatV1.02B3,2013-03-03 10:11:00,
2013-03-03 05:16:00,26.5,23.2,30.05,North,355,3.0,7.0,87,0.00,,,0.00,WeatherCatV1.02B3,2013-03-03 10:16:00,
2013-03-03 05:21:00,26.5,23.2,30.05,WSW,247,2.0,4.0,87,0.00,,,0.00,WeatherCatV1.02B3,2013-03-03 10:21:00,
2013-03-03 05:26:00,26.5,23.2,30.05,WNW,296,3.0,5.0,87,0.00,,,0.00,WeatherCatV1.02B3,2013-03-03 10:26:00,
2013-03-03 05:31:00,26.5,23.2,30.06,NW,319,2.0,6.0,87,0.00,,,0.00,WeatherCatV1.02B3,2013-03-03 10:31:00,
2013-03-03 05:36:00,26.5,23.2,30.06,WSW,245,2.0,4.0,87,0.00,,,0.00,WeatherCatV1.02B3,2013-03-03 10:36:00,
2013-03-03 05:41:00,26.6,23.3,30.06,West,264,4.0,8.0,87,0.00,,,0.00,WeatherCatV1.02B3,2013-03-03 10:41:00,
2013-03-03 05:46:00,26.6,23.3,30.06,West,273,3.0,7.0,87,0.00,,,0.00,WeatherCatV1.02B3,2013-03-03 10:46:00,
2013-03-03 05:51:00,26.6,23.3,30.06,WNW,288,2.0,6.0,87,0.00,,,0.00,WeatherCatV1.02B3,2013-03-03 10:51:00,
2013-03-03 05:56:00,26.6,23.3,30.06,SW,215,3.0,7.0,87,0.00,,,0.00,WeatherCatV1.02B3,2013-03-03 10:56:00,
2013-03-03 06:01:00,26.6,23.3,30.06,WNW,296,9.0,10.0,87,0.00,,,0.00,WeatherCatV1.02B3,2013-03-03 11:01:00,
2013-03-03 06:06:00,26.6,23.5,30.06,WNW,296,1.0,3.0,88,0.00,,,0.00,WeatherCatV1.02B3,2013-03-03 11:06:00,
2013-03-03 06:11:00,26.6,23.5,30.06,NW,306,2.0,4.0,88,0.00,,,0.00,WeatherCatV1.02B3,2013-03-03 11:11:00,
2013-03-03 06:16:00,26.5,23.4,30.06,West,265,1.0,5.0,88,0.00,,,0.00,WeatherCatV1.02B3,2013-03-03 11:16:00,
2013-03-03 06:21:00,26.5,23.4,30.06,SW,231,2.0,6.0,88,0.00,,,0.00,WeatherCatV1.02B3,2013-03-03 11:21:00,
2013-03-03 06:26:00,26.5,23.4,30.06,West,273,3.0,10.0,88,0.00,,,0.00,WeatherCatV1.02B3,2013-03-03 11:26:00,
2013-03-03 06:31:00,26.6,23.5,30.06,SSW,194,0.0,7.0,88,0.00,,,0.00,WeatherCatV1.02B3,2013-03-03 11:31:00,
2013-03-03 06:36:00,26.6,23.3,30.06,WNW,295,3.0,5.0,87,0.00,,,0.00,WeatherCatV1.02B3,2013-03-03 11:36:00,
2013-03-03 06:41:00,26.6,23.3,30.06,SW,216,2.0,11.0,87,0.00,,,0.00,WeatherCatV1.02B3,2013-03-03 11:41:00,
2013-03-03 06:46:00,26.5,23.2,30.06,WNW,287,2.0,6.0,87,0.00,,,0.00,WeatherCatV1.02B3,2013-03-03 11:46:00,
2013-03-03 06:51:00,26.5,23.2,30.06,WNW,286,0.0,4.0,87,0.00,,,0.00,WeatherCatV1.02B3,2013-03-03 11:51:00,
2013-03-03 06:56:00,26.5,23.2,30.06,WNW,290,4.0,7.0,87,0.00,,,0.00,WeatherCatV1.02B3,2013-03-03 11:56:00,
2013-03-03 07:01:00,26.6,23.3,30.07,WSW,257,4.0,7.0,87,0.00,,,0.00,WeatherCatV1.02B3,2013-03-03 12:01:00,
2013-03-03 07:06:00,26.5,23.2,30.07,West,279,2.0,4.0,87,0.00,,,0.00,WeatherCatV1.02B3,2013-03-03 12:06:00,
2013-03-03 07:11:00,26.6,23.3,30.06,West,279,0.0,3.0,87,0.00,,,0.00,WeatherCatV1.02B3,2013-03-03 12:11:00,
2013-03-03 07:16:00,26.7,23.4,30.07,West,260,2.0,4.0,87,0.00,,,0.00,WeatherCatV1.02B3,2013-03-03 12:16:00,
2013-03-03 07:21:00,26.7,23.4,30.07,West,259,3.0,4.0,87,0.00,,,0.00,WeatherCatV1.02B3,2013-03-03 12:21:00,
2013-03-03 07:26:00,26.7,23.4,30.07,WNW,300,1.0,4.0,87,0.00,,,0.00,WeatherCatV1.02B3,2013-03-03 12:26:00,
2013-03-03 07:31:00,26.7,23.4,30.07,WNW,286,1.0,6.0,87,0.00,,,0.00,WeatherCatV1.02B3,2013-03-03 12:31:00,
2013-03-03 07:36:00,26.7,23.4,30.07,WNW,287,0.0,2.0,87,0.00,,,0.00,WeatherCatV1.02B3,2013-03-03 12:36:00,
2013-03-03 07:41:00,26.8,23.7,30.07,West,262,0.0,3.0,88,0.00,,,0.00,WeatherCatV1.02B3,2013-03-03 12:41:00,
2013-03-03 07:46:00,26.8,23.7,30.07,West,261,3.0,5.0,88,0.00,,,0.00,WeatherCatV1.02B3,2013-03-03 12:46:00,
2013-03-03 07:51:00,26.7,23.6,30.07,WSW,242,3.0,6.0,88,0.00,,,0.00,WeatherCatV1.02B3,2013-03-03 12:51:00,
2013-03-03 07:56:00,26.7,23.6,30.07,WSW,243,1.0,5.0,88,0.00,,,0.00,WeatherCatV1.02B3,2013-03-03 12:56:00,
2013-03-03 08:01:00,26.7,23.6,30.07,West,259,0.0,7.0,88,0.00,,,0.00,WeatherCatV1.02B3,2013-03-03 13:01:00,
2013-03-03 08:06:00,26.8,23.7,30.07,West,259,2.0,12.0,88,0.00,,,0.00,WeatherCatV1.02B3,2013-03-03 13:06:00,
2013-03-03 08:11:00,26.8,23.7,30.07,WNW,293,2.0,6.0,88,0.00,,,0.00,WeatherCatV1.02B3,2013-03-03 13:11:00,
2013-03-03 08:16:00,26.8,23.7,30.07,West,262,2.0,5.0,88,0.00,,,0.00,WeatherCatV1.02B3,2013-03-03 13:16:00,
2013-03-03 08:21:00,26.8,23.7,30.07,West,272,3.0,6.0,88,0.00,,,0.00,WeatherCatV1.02B3,2013-03-03 13:21:00,
2013-03-03 08:26:00,26.7,23.6,30.07,West,273,3.0,6.0,88,0.00,,,0.00,WeatherCatV1.02B3,2013-03-03 13:26:00,
2013-03-03 08:31:00,26.6,23.8,30.07,WSW,242,2.0,5.0,89,0.00,,,0.00,WeatherCatV1.02B3,2013-03-03 13:31:00,
2013-03-03 08:36:00,26.6,23.8,30.07,West,265,3.0,10.0,89,0.00,,,0.00,WeatherCatV1.02B3,2013-03-03 13:36:00,
2013-03-03 08:41:00,26.5,23.7,30.08,West,268,0.0,6.0,89,0.00,,,0.00,WeatherCatV1.02B3,2013-03-03 13:41:00,
2013-03-03 08:47:00,26.4,23.6,30.08,West,267,2.0,5.0,89,0.00,,,0.00,WeatherCatV1.02B3,2013-03-03 13:47:00,
2013-03-03 08:52:00,26.4,23.6,30.08,West,265,6.0,10.0,89,0.00,,,0.00,WeatherCatV1.02B3,2013-03-03 13:52:00,
2013-03-03 08:57:00,26.4,23.6,30.08,West,267,0.0,4.0,89,0.00,,,0.00,WeatherCatV1.02B3,2013-03-03 13:57:00,
2013-03-03 09:02:00,26.4,23.6,30.07,WSW,252,2.0,5.0,89,0.00,,,0.00,WeatherCatV1.02B3,2013-03-03 14:02:00,
2013-03-03 09:07:00,26.4,23.6,30.08,WSW,258,2.0,6.0,89,0.00,,,0.00,WeatherCatV1.02B3,2013-03-03 14:07:00,
2013-03-03 09:12:00,26.3,23.5,30.07,West,261,2.0,4.0,89,0.00,,,0.00,WeatherCatV1.02B3,2013-03-03 14:12:00,
2013-03-03 09:17:00,26.4,23.6,30.07,West,269,4.0,4.0,89,0.00,,,0.00,WeatherCatV1.02B3,2013-03-03 14:17:00,
2013-03-03 09:22:00,26.4,23.6,30.07,WSW,256,4.0,5.0,89,0.00,,,0.00,WeatherCatV1.02B3,2013-03-03 14:22:00,
2013-03-03 09:27:00,26.4,23.6,30.07,West,263,5.0,5.0,89,0.00,,,0.00,WeatherCatV1.02B3,2013-03-03 14:27:00,
2013-03-03 09:32:00,26.6,23.8,30.07,WSW,246,3.0,6.0,89,0.00,,,0.00,WeatherCatV1.02B3,2013-03-03 14:32:00,
2013-03-03 09:37:00,26.6,23.8,30.07,WSW,244,5.0,9.0,89,0.00,,,0.00,WeatherCatV1.02B3,2013-03-03 14:37:00,
2013-03-03 09:42:00,26.6,23.8,30.07,West,271,4.0,7.0,89,0.00,,,0.00,WeatherCatV1.02B3,2013-03-03 14:42:00,
2013-03-03 09:47:00,26.8,24.0,30.07,West,267,3.0,3.0,89,0.00,,,0.00,WeatherCatV1.02B3,2013-03-03 14:47:00,
2013-03-03 09:52:00,26.8,24.0,30.07,West,277,2.0,4.0,89,0.00,,,0.00,WeatherCatV1.02B3,2013-03-03 14:52:00,
2013-03-03 09:57:00,26.9,24.1,30.07,WNW,291,4.0,4.0,89,0.00,,,0.00,WeatherCatV1.02B3,2013-03-03 14:57:00,
2013-03-03 10:02:00,26.9,23.8,30.07,West,281,2.0,2.0,88,0.00,,,0.00,WeatherCatV1.02B3,2013-03-03 15:02:00,
2013-03-03 10:07:00,26.9,23.8,30.07,WNW,298,4.0,7.0,88,0.00,,,0.00,WeatherCatV1.02B3,2013-03-03 15:07:00,
2013-03-03 10:12:00,26.9,23.8,30.07,WSW,243,3.0,4.0,88,0.00,,,0.00,WeatherCatV1.02B3,2013-03-03 15:12:00,
2013-03-03 10:17:00,27.0,23.9,30.07,WNW,295,3.0,5.0,88,0.00,,,0.00,WeatherCatV1.02B3,2013-03-03 15:17:00,
2013-03-03 10:22:00,27.0,23.9,30.07,West,259,3.0,6.0,88,0.00,,,0.00,WeatherCatV1.02B3,2013-03-03 15:22:00,
2013-03-03 10:27:00,26.9,23.8,30.07,West,269,5.0,5.0,88,0.00,,,0.00,WeatherCatV1.02B3,2013-03-03 15:27:00,
2013-03-03 10:32:00,26.9,23.8,30.07,WSW,257,4.0,11.0,88,0.00,,,0.00,WeatherCatV1.02B3,2013-03-03 15:32:00,
2013-03-03 10:37:00,27.0,23.9,30.07,WNW,301,2.0,7.0,88,0.00,,,0.00,WeatherCatV1.02B3,2013-03-03 15:37:00,
2013-03-03 10:42:00,27.1,24.0,30.07,SW,227,5.0,6.0,88,0.00,,,0.00,WeatherCatV1.02B3,2013-03-03 15:42:00,
2013-03-03 10:47:00,27.1,24.0,30.07,WSW,255,4.0,9.0,88,0.00,,,0.00,WeatherCatV1.02B3,2013-03-03 15:47:00,
2013-03-03 10:52:00,27.1,24.0,30.07,WSW,254,4.0,5.0,88,0.00,,,0.00,WeatherCatV1.02B3,2013-03-03 15:52:00,
2013-03-03 10:57:00,27.1,24.0,30.07,West,269,1.0,4.0,88,0.00,,,0.00,WeatherCatV1.02B3,2013-03-03 15:57:00,
2013-03-03 11:02:00,27.1,24.0,30.07,West,264,2.0,7.0,88,0.00,,,0.00,WeatherCatV1.02B3,2013-03-03 16:02:00,
2013-03-03 11:07:00,27.1,24.0,30.07,SW,232,2.0,3.0,88,0.00,,,0.00,WeatherCatV1.02B3,2013-03-03 16:07:00,
2013-03-03 11:12:00,27.2,24.1,30.07,West,269,4.0,10.0,88,0.00,,,0.00,WeatherCatV1.02B3,2013-03-03 16:12:00,
2013-03-03 11:17:00,27.2,24.1,30.07,WNW,298,6.0,7.0,88,0.00,,,0.00,WeatherCatV1.02B3,2013-03-03 16:17:00,
2013-03-03 11:22:00,27.3,24.2,30.07,West,265,2.0,3.0,88,0.00,,,0.00,WeatherCatV1.02B3,2013-03-03 16:22:00,
2013-03-03 11:27:00,27.3,24.2,30.07,WNW,282,3.0,7.0,88,0.00,,,0.00,WeatherCatV1.02B3,2013-03-03 16:27:00,
2013-03-03 11:32:00,27.2,24.1,30.07,WSW,248,3.0,5.0,88,0.00,,,0.00,WeatherCatV1.02B3,2013-03-03 16:32:00,
2013-03-03 11:37:00,27.2,24.1,30.07,West,268,5.0,8.0,88,0.00,,,0.00,WeatherCatV1.02B3,2013-03-03 16:37:00,
2013-03-03 11:42:00,27.3,24.2,30.07,SW,236,4.0,7.0,88,0.00,,,0.00,WeatherCatV1.02B3,2013-03-03 16:42:00,
2013-03-03 11:47:00,27.4,24.3,30.07,WSW,251,5.0,5.0,88,0.00,,,0.00,WeatherCatV1.02B3,2013-03-03 16:47:00,
2013-03-03 11:52:00,27.4,24.3,30.07,WSW,238,2.0,6.0,88,0.00,,,0.00,WeatherCatV1.02B3,2013-03-03 16:52:00,
2013-03-03 11:57:00,27.5,24.4,30.07,West,259,1.0,7.0,88,0.00,,,0.00,WeatherCatV1.02B3,2013-03-03 16:57:00,
2013-03-03 12:02:00,27.7,24.6,30.07,WSW,258,4.0,6.0,88,0.00,,,0.00,WeatherCatV1.02B3,2013-03-03 17:02:00,
2013-03-03 12:07:00,28.0,24.9,30.07,WNW,295,3.0,6.0,88,0.00,,,0.00,WeatherCatV1.02B3,2013-03-03 17:07:00,
2013-03-03 12:12:00,28.0,24.6,30.07,NW,318,6.0,6.0,87,0.00,,,0.00,WeatherCatV1.02B3,2013-03-03 17:12:00,
2013-03-03 12:17:00,28.1,24.7,30.07,WSW,248,1.0,4.0,87,0.00,,,0.00,WeatherCatV1.02B3,2013-03-03 17:17:00,
2013-03-03 12:22:00,28.1,24.7,30.07,West,265,1.0,5.0,87,0.00,,,0.00,WeatherCatV1.02B3,2013-03-03 17:22:00,
2013-03-03 12:27:00,28.1,24.7,30.07,WNW,291,3.0,11.0,87,0.00,,,0.00,WeatherCatV1.02B3,2013-03-03 17:27:00,
2013-03-03 12:32:00,28.1,24.7,30.07,WSW,246,5.0,13.0,87,0.00,,,0.00,WeatherCatV1.02B3,2013-03-03 17:32:00,
2013-03-03 12:37:00,28.1,24.5,30.07,WNW,298,5.0,7.0,86,0.00,,,0.00,WeatherCatV1.02B3,2013-03-03 17:37:00,
2013-03-03 12:42:00,28.2,24.6,30.06,WSW,256,5.0,7.0,86,0.00,,,0.00,WeatherCatV1.02B3,2013-03-03 17:42:00,
2013-03-03 12:47:00,28.0,24.1,30.07,NNW,338,1.0,12.0,85,0.00,,,0.00,WeatherCatV1.02B3,2013-03-03 17:47:00,
2013-03-03 12:52:00,27.9,24.0,30.07,NW,313,1.0,6.0,85,0.00,,,0.00,WeatherCatV1.02B3,2013-03-03 17:52:00,
2013-03-03 12:57:00,27.9,24.0,30.07,West,265,3.0,13.0,85,0.00,,,0.00,WeatherCatV1.02B3,2013-03-03 17:57:00,
2013-03-03 13:02:00,27.9,23.4,30.06,West,259,3.0,5.0,83,0.00,,,0.00,WeatherCatV1.02B3,2013-03-03 18:02:00,
2013-03-03 13:07:00,28.0,23.5,30.07,WSW,254,12.0,12.0,83,0.00,,,0.00,WeatherCatV1.02B3,2013-03-03 18:07:00,
2013-03-03 13:12:00,28.1,23.6,30.07,West,260,1.0,10.0,83,0.00,,,0.00,WeatherCatV1.02B3,2013-03-03 18:12:00,
2013-03-03 13:17:00,28.1,23.3,30.07,WNW,285,4.0,14.0,82,0.00,,,0.00,WeatherCatV1.02B3,2013-03-03 18:17:00,
2013-03-03 13:22:00,28.1,23.3,30.06,WSW,257,4.0,8.0,82,0.00,,,0.00,WeatherCatV1.02B3,2013-03-03 18:22:00,
2013-03-03 13:27:00,28.1,23.3,30.06,West,269,3.0,9.0,82,0.00,,,0.00,WeatherCatV1.02B3,2013-03-03 18:27:00,
2013-03-03 13:32:00,28.1,23.3,30.06,WSW,255,2.0,6.0,82,0.00,,,0.00,WeatherCatV1.02B3,2013-03-03 18:32:00,
2013-03-03 13:37:00,28.3,23.5,30.06,West,273,6.0,9.0,82,0.00,,,0.00,WeatherCatV1.02B3,2013-03-03 18:37:00,
2013-03-03 13:42:00,28.2,23.4,30.06,NW,313,2.0,6.0,82,0.00,,,0.00,WeatherCatV1.02B3,2013-03-03 18:42:00,
2013-03-03 13:47:00,28.4,23.6,30.06,WSW,241,7.0,7.0,82,0.00,,,0.00,WeatherCatV1.02B3,2013-03-03 18:47:00,
2013-03-03 13:52:00,28.5,23.7,30.06,WSW,252,1.0,6.0,82,0.00,,,0.00,WeatherCatV1.02B3,2013-03-03 18:52:00,
2013-03-03 13:57:00,28.5,23.1,30.06,West,278,4.0,10.0,80,0.00,,,0.01,WeatherCatV1.02B3,2013-03-03 18:57:00,
2013-03-03 14:02:00,28.6,22.9,30.06,WNW,297,5.0,10.0,79,0.00,,,0.01,WeatherCatV1.02B3,2013-03-03 19:02:00,
2013-03-03 14:07:00,28.8,22.8,30.06,West,280,1.0,6.0,78,0.00,,,0.01,WeatherCatV1.02B3,2013-03-03 19:07:00,
2013-03-03 14:12:00,29.0,22.7,30.06,WSW,256,4.0,6.0,77,0.00,,,0.01,WeatherCatV1.02B3,2013-03-03 19:12:00,
2013-03-03 14:17:00,29.5,23.2,30.06,WSW,240,5.0,5.0,77,0.00,,,0.01,WeatherCatV1.02B3,2013-03-03 19:17:00,
2013-03-03 14:22:00,29.4,22.8,30.06,West,264,7.0,10.0,76,0.00,,,0.01,WeatherCatV1.02B3,2013-03-03 19:22:00,
2013-03-03 14:27:00,29.5,22.9,30.05,WSW,246,4.0,9.0,76,0.00,,,0.01,WeatherCatV1.02B3,2013-03-03 19:27:00,
2013-03-03 14:32:00,29.3,22.4,30.05,WSW,254,6.0,7.0,75,0.00,,,0.01,WeatherCatV1.02B3,2013-03-03 19:32:00,
2013-03-03 14:37:00,29.3,22.1,30.05,West,274,3.0,5.0,74,0.00,,,0.01,WeatherCatV1.02B3,2013-03-03 19:37:00,
2013-03-03 14:42:00,29.3,22.1,30.05,West,267,2.0,4.0,74,0.00,,,0.01,WeatherCatV1.02B3,2013-03-03 19:42:00,
2013-03-03 14:47:00,29.0,21.4,30.06,WSW,250,2.0,7.0,73,0.00,,,0.01,WeatherCatV1.02B3,2013-03-03 19:47:00,
2013-03-03 14:52:00,29.3,22.1,30.06,West,267,5.0,9.0,74,0.00,,,0.01,WeatherCatV1.02B3,2013-03-03 19:52:00,
2013-03-03 14:57:00,29.4,21.8,30.06,WNW,283,2.0,7.0,73,0.00,,,0.01,WeatherCatV1.02B3,2013-03-03 19:57:00,
2013-03-03 15:02:00,29.3,21.4,30.06,SW,233,7.0,12.0,72,0.00,,,0.01,WeatherCatV1.02B3,2013-03-03 20:02:00,
2013-03-03 15:07:00,29.7,21.8,30.05,WSW,240,5.0,6.0,72,0.00,,,0.01,WeatherCatV1.02B3,2013-03-03 20:07:00,
2013-03-03 15:12:00,29.8,21.9,30.05,West,269,3.0,6.0,72,0.00,,,0.01,WeatherCatV1.02B3,2013-03-03 20:12:00,
2013-03-03 15:17:00,30.1,21.9,30.05,West,281,4.0,11.0,71,0.00,,,0.01,WeatherCatV1.02B3,2013-03-03 20:17:00,
2013-03-03 15:22:00,29.8,21.9,30.05,West,275,6.0,6.0,72,0.00,,,0.01,WeatherCatV1.02B3,2013-03-03 20:22:00,
2013-03-03 15:27:00,29.5,21.9,30.06,WSW,254,3.0,6.0,73,0.00,,,0.01,WeatherCatV1.02B3,2013-03-03 20:27:00,
2013-03-03 15:32:00,29.8,22.2,30.06,West,279,5.0,11.0,73,0.00,,,0.01,WeatherCatV1.02B3,2013-03-03 20:32:00,
2013-03-03 15:37:00,29.2,22.0,30.06,West,273,5.0,12.0,74,0.00,,,0.01,WeatherCatV1.02B3,2013-03-03 20:37:00,
2013-03-03 15:42:00,28.9,22.0,30.06,WNW,287,3.0,7.0,75,0.00,,,0.01,WeatherCatV1.02B3,2013-03-03 20:42:00,
2013-03-03 15:47:00,29.4,22.8,30.06,West,265,8.0,9.0,76,0.00,,,0.01,WeatherCatV1.02B3,2013-03-03 20:47:00,
2013-03-03 15:52:00,29.3,22.7,30.06,WNW,285,0.0,10.0,76,0.00,,,0.01,WeatherCatV1.02B3,2013-03-03 20:52:00,
2013-03-03 15:57:00,29.1,23.1,30.07,WNW,286,3.0,4.0,78,0.00,,,0.01,WeatherCatV1.02B3,2013-03-03 20:57:00,
2013-03-03 16:02:00,28.9,22.9,30.07,West,263,5.0,13.0,78,0.00,,,0.01,WeatherCatV1.02B3,2013-03-03 21:02:00,
2013-03-03 16:07:00,28.4,22.7,30.07,WSW,241,3.0,4.0,79,0.00,,,0.01,WeatherCatV1.02B3,2013-03-03 21:07:00,
2013-03-03 16:12:00,28.2,22.8,30.07,West,268,3.0,6.0,80,0.00,,,0.01,WeatherCatV1.02B3,2013-03-03 21:12:00,
2013-03-03 16:17:00,28.2,22.8,30.07,West,260,3.0,6.0,80,0.00,,,0.01,WeatherCatV1.02B3,2013-03-03 21:17:00,
2013-03-03 16:22:00,28.1,22.7,30.07,WSW,257,4.0,7.0,80,0.00,,,0.01,WeatherCatV1.02B3,2013-03-03 21:22:00,
2013-03-03 16:27:00,28.1,23.0,30.07,West,277,3.0,7.0,81,0.00,,,0.01,WeatherCatV1.02B3,2013-03-03 21:27:00,
2013-03-03 16:32:00,28.4,23.3,30.07,West,261,0.0,2.0,81,0.00,,,0.01,WeatherCatV1.02B3,2013-03-03 21:32:00,
2013-03-03 16:37:00,28.4,23.0,30.07,West,275,7.0,9.0,80,0.00,,,0.01,WeatherCatV1.02B3,2013-03-03 21:37:00,
2013-03-03 16:42:00,28.3,22.9,30.07,WSW,248,3.0,6.0,80,0.00,,,0.01,WeatherCatV1.02B3,2013-03-03 21:42:00,
2013-03-03 16:47:00,28.0,22.6,30.07,WSW,242,0.0,11.0,80,0.00,,,0.01,WeatherCatV1.02B3,2013-03-03 21:47:00,
2013-03-03 16:52:00,27.9,22.5,30.07,WNW,298,5.0,6.0,80,0.00,,,0.01,WeatherCatV1.02B3,2013-03-03 21:52:00,
2013-03-03 16:57:00,27.8,22.2,30.07,West,269,0.0,5.0,79,0.00,,,0.01,WeatherCatV1.02B3,2013-03-03 21:57:00,
2013-03-03 17:02:00,27.7,21.8,30.07,WSW,258,3.0,4.0,78,0.00,,,0.01,WeatherCatV1.02B3,2013-03-03 22:02:00,
2013-03-03 17:07:00,27.8,21.5,30.07,WSW,254,3.0,6.0,77,0.00,,,0.01,WeatherCatV1.02B3,2013-03-03 22:07:00,
2013-03-03 17:12:00,27.9,21.6,30.07,West,267,4.0,7.0,77,0.00,,,0.01,WeatherCatV1.02B3,2013-03-03 22:12:00,
2013-03-03 17:17:00,28.0,21.4,30.08,WSW,252,3.0,7.0,76,0.00,,,0.01,WeatherCatV1.02B3,2013-03-03 22:17:00,
2013-03-03 17:22:00,28.0,21.4,30.08,WNW,288,4.0,7.0,76,0.00,,,0.01,WeatherCatV1.02B3,2013-03-03 22:22:00,
2013-03-03 17:27:00,27.9,21.0,30.08,NW,312,0.0,9.0,75,0.00,,,0.01,WeatherCatV1.02B3,2013-03-03 22:27:00,
2013-03-03 17:32:00,27.9,21.0,30.08,SW,234,6.0,11.0,75,0.00,,,0.01,WeatherCatV1.02B3,2013-03-03 22:32:00,
2013-03-03 17:37:00,27.8,20.9,30.08,West,261,7.0,7.0,75,0.00,,,0.01,WeatherCatV1.02B3,2013-03-03 22:37:00,
2013-03-03 17:42:00,27.7,20.8,30.08,WNW,287,4.0,6.0,75,0.00,,,0.01,WeatherCatV1.02B3,2013-03-03 22:42:00,
2013-03-03 17:47:00,27.5,20.3,30.09,WNW,286,6.0,12.0,74,0.00,,,0.01,WeatherCatV1.02B3,2013-03-03 22:47:00,
2013-03-03 17:52:00,27.5,20.3,30.09,NW,313,2.0,7.0,74,0.00,,,0.01,WeatherCatV1.02B3,2013-03-03 22:52:00,
2013-03-03 17:57:00,27.5,19.7,30.09,West,269,2.0,4.0,72,0.00,,,0.01,WeatherCatV1.02B3,2013-03-03 22:57:00,
2013-03-03 18:02:00,27.5,19.7,30.09,West,263,3.0,7.0,72,0.00,,,0.01,WeatherCatV1.02B3,2013-03-03 23:02:00,
2013-03-03 18:07:00,27.5,19.7,30.09,WSW,244,1.0,6.0,72,0.00,,,0.01,WeatherCatV1.02B3,2013-03-03 23:07:00,
2013-03-03 18:12:00,27.4,20.2,30.09,WSW,256,3.0,5.0,74,0.00,,,0.01,WeatherCatV1.02B3,2013-03-03 23:12:00,
2013-03-03 18:17:00,27.2,20.3,30.09,WNW,299,5.0,5.0,75,0.00,,,0.01,WeatherCatV1.02B3,2013-03-03 23:17:00,
2013-03-03 18:22:00,27.1,20.6,30.10,WNW,286,0.0,4.0,76,0.00,,,0.01,WeatherCatV1.02B3,2013-03-03 23:22:00,
2013-03-03 18:27:00,27.0,20.5,30.10,West,277,3.0,9.0,76,0.00,,,0.01,WeatherCatV1.02B3,2013-03-03 23:27:00,
2013-03-03 18:32:00,27.1,20.2,30.10,WNW,286,3.0,5.0,75,0.00,,,0.01,WeatherCatV1.02B3,2013-03-03 23:32:00,
2013-03-03 18:37:00,27.2,20.0,30.10,West,268,2.0,5.0,74,0.00,,,0.01,WeatherCatV1.02B3,2013-03-03 23:37:00,
2013-03-03 18:42:00,27.1,20.2,30.10,WNW,288,5.0,7.0,75,0.00,,,0.01,WeatherCatV1.02B3,2013-03-03 23:42:00,
2013-03-03 18:47:00,27.0,20.2,30.10,West,280,0.0,3.0,75,0.00,,,0.01,WeatherCatV1.02B3,2013-03-03 23:47:00,
2013-03-03 18:52:00,27.0,20.2,30.10,WSW,257,0.0,7.0,75,0.00,,,0.01,WeatherCatV1.02B3,2013-03-03 23:52:00,
2013-03-03 18:57:00,27.1,19.6,30.11,WSW,249,6.0,6.0,73,0.00,,,0.01,WeatherCatV1.02B3,2013-03-03 23:57:00,
2013-03-03 19:02:00,27.2,19.7,30.11,West,269,3.0,4.0,73,0.00,,,0.01,WeatherCatV1.02B3,2013-03-04 00:02:00,
2013-03-03 19:07:00,27.1,19.6,30.10,West,265,0.0,0.0,73,0.00,,,0.01,WeatherCatV1.02B3,2013-03-04 00:07:00,
2013-03-03 19:12:00,26.9,19.4,30.10,West,263,1.0,4.0,73,0.00,,,0.01,WeatherCatV1.02B3,2013-03-04 00:12:00,
2013-03-03 19:17:00,26.8,19.3,30.10,WNW,299,0.0,4.0,73,0.00,,,0.01,WeatherCatV1.02B3,2013-03-04 00:17:00,
2013-03-03 19:22:00,26.8,19.3,30.10,WNW,284,0.0,2.0,73,0.00,,,0.01,WeatherCatV1.02B3,2013-03-04 00:22:00,
2013-03-03 19:27:00,26.8,19.3,30.11,WNW,286,0.0,1.0,73,0.00,,,0.01,WeatherCatV1.02B3,2013-03-04 00:27:00,
2013-03-03 19:32:00,27.0,19.5,30.11,WNW,296,2.0,5.0,73,0.00,,,0.01,WeatherCatV1.02B3,2013-03-04 00:32:00,
2013-03-03 19:37:00,27.0,19.5,30.11,WNW,284,2.0,7.0,73,0.00,,,0.01,WeatherCatV1.02B3,2013-03-04 00:37:00,
2013-03-03 19:42:00,27.0,19.8,30.11,NW,318,0.0,0.0,74,0.00,,,0.01,WeatherCatV1.02B3,2013-03-04 00:42:00,
2013-03-03 19:47:00,26.9,19.7,30.11,West,275,0.0,4.0,74,0.00,,,0.01,WeatherCatV1.02B3,2013-03-04 00:47:00,
2013-03-03 19:52:00,26.9,20.1,30.11,WNW,288,0.0,0.0,75,0.00,,,0.01,WeatherCatV1.02B3,2013-03-04 00:52:00,
2013-03-03 19:57:00,26.9,20.1,30.11,West,263,3.0,6.0,75,0.00,,,0.01,WeatherCatV1.02B3,2013-03-04 00:57:00,
2013-03-03 20:02:00,26.9,20.1,30.12,WSW,245,2.0,5.0,75,0.00,,,0.01,WeatherCatV1.02B3,2013-03-04 01:02:00,
2013-03-03 20:07:00,26.8,20.0,30.11,WNW,290,3.0,5.0,75,0.00,,,0.01,WeatherCatV1.02B3,2013-03-04 01:07:00,
2013-03-03 20:12:00,26.9,20.1,30.12,West,264,4.0,6.0,75,0.00,,,0.01,WeatherCatV1.02B3,2013-03-04 01:12:00,
2013-03-03 20:17:00,26.9,20.1,30.12,SW,214,2.0,3.0,75,0.00,,,0.01,WeatherCatV1.02B3,2013-03-04 01:17:00,
2013-03-03 20:22:00,26.9,20.1,30.12,NW,306,2.0,3.0,75,0.00,,,0.01,WeatherCatV1.02B3,2013-03-04 01:22:00,
2013-03-03 20:27:00,27.0,20.5,30.12,NW,322,0.0,4.0,76,0.00,,,0.01,WeatherCatV1.02B3,2013-03-04 01:27:00,
2013-03-03 20:32:00,27.0,20.5,30.12,WNW,300,3.0,10.0,76,0.00,,,0.01,WeatherCatV1.02B3,2013-03-04 01:32:00,
2013-03-03 20:37:00,27.0,20.8,30.12,WSW,253,0.0,8.0,77,0.00,,,0.01,WeatherCatV1.02B3,2013-03-04 01:37:00,
2013-03-03 20:42:00,27.0,20.8,30.12,North,5,0.0,3.0,77,0.00,,,0.01,WeatherCatV1.02B3,2013-03-04 01:42:00,
2013-03-03 20:47:00,27.0,20.8,30.13,NW,311,2.0,4.0,77,0.00,,,0.01,WeatherCatV1.02B3,2013-03-04 01:47:00,
2013-03-03 20:53:00,27.0,20.8,30.13,West,263,4.0,5.0,77,0.00,,,0.01,WeatherCatV1.02B3,2013-03-04 01:53:00,
2013-03-03 20:58:00,26.9,21.0,30.12,WSW,248,5.0,5.0,78,0.00,,,0.01,WeatherCatV1.02B3,2013-03-04 01:58:00,
2013-03-03 21:03:00,26.8,20.9,30.13,West,269,3.0,5.0,78,0.00,,,0.01,WeatherCatV1.02B3,2013-03-04 02:03:00,
2013-03-03 21:08:00,26.8,20.9,30.13,NW,309,1.0,6.0,78,0.00,,,0.01,WeatherCatV1.02B3,2013-03-04 02:08:00,
2013-03-03 21:13:00,26.7,20.8,30.13,WNW,298,0.0,1.0,78,0.00,,,0.01,WeatherCatV1.02B3,2013-03-04 02:13:00,
2013-03-03 21:18:00,26.7,21.4,30.13,WNW,298,0.0,4.0,80,0.00,,,0.01,WeatherCatV1.02B3,2013-03-04 02:18:00,
2013-03-03 21:23:00,26.5,21.2,30.13,West,277,0.0,1.0,80,0.00,,,0.01,WeatherCatV1.02B3,2013-03-04 02:23:00,
2013-03-03 21:28:00,26.3,21.3,30.13,WNW,294,2.0,2.0,81,0.00,,,0.01,WeatherCatV1.02B3,2013-03-04 02:28:00,
2013-03-03 21:33:00,26.2,20.9,30.13,West,270,0.0,6.0,80,0.00,,,0.01,WeatherCatV1.02B3,2013-03-04 02:33:00,
2013-03-03 21:38:00,26.2,20.9,30.13,NW,320,2.0,6.0,80,0.00,,,0.01,WeatherCatV1.02B3,2013-03-04 02:38:00,
2013-03-03 21:43:00,26.2,20.9,30.13,West,259,2.0,6.0,80,0.00,,,0.01,WeatherCatV1.02B3,2013-03-04 02:43:00,
2013-03-03 21:48:00,26.2,20.9,30.13,WNW,286,3.0,3.0,80,0.00,,,0.01,WeatherCatV1.02B3,2013-03-04 02:48:00,
2013-03-03 21:53:00,26.2,20.6,30.13,NW,309,1.0,4.0,79,0.00,,,0.01,WeatherCatV1.02B3,2013-03-04 02:53:00,
2013-03-03 21:58:00,26.2,20.6,30.13,West,266,1.0,5.0,79,0.00,,,0.01,WeatherCatV1.02B3,2013-03-04 02:58:00,
2013-03-03 22:03:00,26.1,20.2,30.13,WNW,300,0.0,3.0,78,0.00,,,0.01,WeatherCatV1.02B3,2013-03-04 03:03:00,
2013-03-03 22:08:00,26.0,20.1,30.13,WSW,247,0.0,2.0,78,0.00,,,0.01,WeatherCatV1.02B3,2013-03-04 03:08:00,
2013-03-03 22:13:00,25.9,20.0,30.13,West,274,0.0,5.0,78,0.00,,,0.01,WeatherCatV1.02B3,2013-03-04 03:13:00,
2013-03-03 22:18:00,26.0,20.1,30.13,WSW,242,1.0,5.0,78,0.00,,,0.01,WeatherCatV1.02B3,2013-03-04 03:18:00,
2013-03-03 22:23:00,25.9,20.0,30.13,NW,313,1.0,4.0,78,0.00,,,0.01,WeatherCatV1.02B3,2013-03-04 03:23:00,
2013-03-03 22:28:00,25.9,20.0,30.13,West,265,2.0,3.0,78,0.00,,,0.01,WeatherCatV1.02B3,2013-03-04 03:28:00,
2013-03-03 22:33:00,25.9,20.0,30.13,WNW,303,1.0,5.0,78,0.00,,,0.01,WeatherCatV1.02B3,2013-03-04 03:33:00,
2013-03-03 22:38:00,25.9,19.7,30.13,NW,313,0.0,0.0,77,0.00,,,0.01,WeatherCatV1.02B3,2013-03-04 03:38:00,
2013-03-03 22:43:00,25.9,20.0,30.13,NW,314,2.0,5.0,78,0.00,,,0.01,WeatherCatV1.02B3,2013-03-04 03:43:00,
2013-03-03 22:48:00,25.8,19.9,30.13,WNW,297,3.0,5.0,78,0.00,,,0.01,WeatherCatV1.02B3,2013-03-04 03:48:00,
2013-03-03 22:53:00,25.8,19.9,30.13,North,9,0.0,6.0,78,0.00,,,0.01,WeatherCatV1.02B3,2013-03-04 03:53:00,
2013-03-03 22:58:00,25.8,19.9,30.13,West,277,2.0,2.0,78,0.00,,,0.01,WeatherCatV1.02B3,2013-03-04 03:58:00,
2013-03-03 23:03:00,25.8,19.9,30.13,West,265,2.0,4.0,78,0.00,,,0.01,WeatherCatV1.02B3,2013-03-04 04:03:00,
2013-03-03 23:08:00,25.7,20.1,30.13,West,271,1.0,5.0,79,0.00,,,0.01,WeatherCatV1.02B3,2013-03-04 04:08:00,
2013-03-03 23:13:00,25.7,20.1,30.13,WSW,240,5.0,5.0,79,0.00,,,0.01,WeatherCatV1.02B3,2013-03-04 04:13:00,
2013-03-03 23:18:00,25.7,19.8,30.13,WNW,298,0.0,4.0,78,0.00,,,0.01,WeatherCatV1.02B3,2013-03-04 04:18:00,
2013-03-03 23:23:00,25.7,19.8,30.13,West,261,3.0,6.0,78,0.00,,,0.01,WeatherCatV1.02B3,2013-03-04 04:23:00,
2013-03-03 23:28:00,25.7,20.1,30.12,NNE,21,0.0,6.0,79,0.00,,,0.01,WeatherCatV1.02B3,2013-03-04 04:28:00,
2013-03-03 23:33:00,25.7,20.1,30.13,West,267,2.0,4.0,79,0.00,,,0.01,WeatherCatV1.02B3,2013-03-04 04:33:00,
2013-03-03 23:38:00,25.7,19.8,30.13,NW,326,4.0,5.0,78,0.00,,,0.01,WeatherCatV1.02B3,2013-03-04 04:38:00,
2013-03-03 23:43:00,25.6,19.7,30.13,West,269,0.0,4.0,78,0.00,,,0.01,WeatherCatV1.02B3,2013-03-04 04:43:00,
2013-03-03 23:48:00,25.7,19.8,30.13,West,275,2.0,16.0,78,0.00,,,0.01,WeatherCatV1.02B3,2013-03-04 04:48:00,
2013-03-03 23:53:00,25.6,19.4,30.13,West,262,3.0,7.0,77,0.00,,,0.01,WeatherCatV1.02B3,2013-03-04 04:53:00,
2013-03-03 23:58:00,25.6,19.1,30.13,WSW,244,1.0,6.0,76,0.00,,,0.01,WeatherCatV1.02B3,2013-03-04 04:58:00,